Hourly Data Report for October 05, 2015

All times are specified in Local Standard Time (LST). Add 1 hour to adjust for Daylight Saving Time where and when it is observed.

BATHURST A
NEW BRUNSWICK

47°37'47.000" N
65°44'20.000" W
58.80 m
8100505
71574
ZBF

Download Data

Hourly Data (October 2015)
Hourly Data Report for October 5, 2015
Temp Definition
°C
Dew Point Temp Definition
°C
Rel Hum Definition
%
Wind Dir Definition
10's deg

Wind Spd Definition
km/h
Visibility Definition
km
Stn Press Definition
kPa
Hmdx Definition


Wind Chill Definition


Weather Definition


TIME
00:00 Legend Double Dagger 4.4 4.0 97 23 5 19.3 102.06     LegendNANA
01:00 Legend Double Dagger 4.2 3.8 97 22 5 19.3 102.03     LegendNANA
02:00 Legend Double Dagger 4.3 3.7 96 36 2 19.3 102.00     Mostly Cloudy
03:00 Legend Double Dagger 3.7 3.3 97 20 5 19.3 101.94     LegendNANA
04:00 Legend Double Dagger 3.6 3.0 96 36 3 19.3 101.92     LegendNANA
05:00 Legend Double Dagger 2.3 2.0 98 16 3 19.3 101.93     Mostly Cloudy
06:00 Legend Double Dagger 1.9 1.6 98 36 2 24.1 101.87     LegendNANA
07:00 Legend Double Dagger 1.2 0.9 98 36 2 24.1 101.88     LegendNANA
08:00 Legend Double Dagger 3.2 2.9 98 25 5 24.1 101.83     Mostly Cloudy
09:00 Legend Double Dagger 5.5 4.6 94 16 3 24.1 101.77     LegendNANA
10:00 Legend Double Dagger 9.3 7.1 86 12 5 24.1 101.73     LegendNANA
11:00 Legend Double Dagger 12.7 8.0 73 8 4 24.1 101.68     Mostly Cloudy
12:00 Legend Double Dagger 14.1 7.9 66 12 12 24.1 101.63     LegendNANA
13:00 Legend Double Dagger 15.7 6.5 54 13 8 24.1 101.54     LegendNANA
14:00 Legend Double Dagger 16.5 6.7 52 8 12 24.1 101.41     Mostly Cloudy
15:00 Legend Double Dagger 16.5 6.7 52 7 7 24.1 101.32     LegendNANA
16:00 Legend Double Dagger 13.8 7.6 66 3 6 24.1 101.29     LegendNANA
17:00 Legend Double Dagger 12.7 8.0 73 3 4 24.1 101.29     Mostly Cloudy
18:00 Legend Double Dagger 12.1 9.0 81 19 4 24.1 101.31     LegendNANA
19:00 Legend Double Dagger 9.9 8.7 92 36 1 24.1 101.29     LegendNANA
20:00 Legend Double Dagger 9.6 8.7 94 22 3 24.1 101.27     Mostly Cloudy
21:00 Legend Double Dagger 8.5 7.8 95 25 4 24.1 101.25     LegendNANA
22:00 Legend Double Dagger 6.6 6.2 97 18 4 19.3 101.21     LegendNANA
23:00 Legend Double Dagger 5.9 5.6 98 23 3 16.1 101.15     Clear

Notes on Data Quality.

Legend

  • E = Estimated
  • M = Missing
  • NA = Not Available
  • ‡ = Partner data that is not subject to review by the National Climate Archives
Date modified: